Back to catalog

COSMOS 2251 DEB

LostLEO
NORAD 37963·DEBRIS·🇷🇺 Russia

Launched Jun 16, 1993 from Plesetsk Cosmodrome

Loading…

Next Passes (next 24 hours)

TLE

StaleSource: Space-Track

Epoch: Apr 26, 2012, 12:58 UTC

1 37963U 93036BPN 12117.54070801  .00001501  00000-0  87977-3 0  9994
2 37963  74.0630 148.5575 0162942 322.7879 194.0245 14.02668937105431

Track COSMOS 2251 DEB in real time with AllMySat

Download on the App Store